Hourly Data Report for July 18, 2011

HALIFAX STANFIELD INT'L A
NOVA SCOTIA

44°52'48.060" N
63°30'00.050" W
145.40 m
8202250
71395
YHZ

Download Data

Hourly Data (July 2011)
Hourly Data Report for July 18, 2011
TIME
LST
Temp Definition
°C
Dew Point Definition
°C
Rel Hum Definition
%
Precip. Amount Definition
mm

Wind Dir Definition
10's deg

Wind Spd Definition
km/h
Visibility Definition
km
Stn Press Definition
kPa
Hmdx Definition


Wind Chill Definition


Weather Definition


00:00 18.1 14.2 78   21 19 24.1 99.37     Mostly Cloudy
01:00 17.1 13.9 81   20 15 24.1 99.31     Mostly Cloudy
02:00 16.4 13.7 84   21 19 24.1 99.28     Mainly Clear
03:00 15.7 13.5 87   20 19 24.1 99.19     Mainly Clear
04:00 16.3 14.0 86   20 13 24.1 99.10     Mostly Cloudy
05:00 16.5 14.4 87   21 19 24.1 99.10     Mostly Cloudy
06:00 17.1 15.0 87   21 19 16.1 99.07     Mostly Cloudy
07:00 18.1 15.6 85   22 19 16.1 99.07     Mostly Cloudy
08:00 19.4 16.1 81   21 15 16.1 99.09     Cloudy
09:00 20.3 16.6 79   21 17 24.1 99.06 25   Cloudy
10:00 20.9 17.0 78   19 17 16.1 98.97 26   Cloudy
11:00 20.5 17.5 83   20 9 24.1 98.95 26   Cloudy
12:00 21.0 18.0 83   27 13 24.1 98.95 27   Rain Showers
13:00 21.5 18.0 80   23 15 16.1 98.88 28   Cloudy
14:00 22.3 18.1 77   25 22 19.3 98.87 28   Mostly Cloudy
15:00 24.0 18.5 71   26 19 19.3 98.85 30   Cloudy
16:00 24.3 18.3 69   24 13 24.1 98.85 31   Mostly Cloudy
17:00 24.8 19.1 71   23 13 24.1 98.83 32   Mostly Cloudy
18:00 23.5 18.8 75   20 13 24.1 98.86 30   Mostly Cloudy
19:00 21.9 18.2 80   19 13 24.1 98.89 28   Mostly Cloudy
20:00 19.8 17.4 86   19 11 24.1 98.91     Mainly Clear
21:00 18.8 16.6 87   19 9 19.3 98.98     Mainly Clear
22:00 17.3 15.7 90   21 13 19.3 98.99     Mainly Clear
23:00 16.7 15.3 91   20 9 19.3 99.00     Mainly Clear

Notes on Data Quality.

Legend

  • E = Estimated
  • M = Missing
  • NA = Not Available*
  • [empty] = Indicates an unobserved value
Date modified: